Regional Weather Roundup
Issued by NWS

Home | Current Version | Previous Version | Graphics & Text | Print | Product List | Glossary On
Versions: 1 2 3 4 5 6 7 8 9 10 11 12 13 14 15 16 17 18 19 20 21 22 23 24 25 26 27 28 29 30 31 32 33 34 35 36 37 38 39 40 41 42 43 44 45 46 47 48 49 50
000
ASUS43 KMPX 180401
RWRMN
WEATHER ROUNDUP FOR MINNESOTA
NATIONAL WEATHER SERVICE TWIN CITIES/CHANHASSEN MN
1100 PM CDT THU AUG 17 2017


NOTE: "FAIR" INDICATES FEW OR NO CLOUDS BELOW 12,000 FEET WITH NO
SIGNIFICANT WEATHER AND/OR OBSTRUCTIONS TO VISIBILITY. N/A MEANS
CURRENT SKY AND/OR WEATHER CONDITIONS ARE NOT AVAILABLE.

MNZ060>063-068>070-180500-
   Twin Cities Metro

CITY           SKY/WX    TMP DP  RH WIND       PRES   REMARKS
TWIN CITIES    PTCLDY    66  58  75 NW7       29.84S
ST PAUL        MOCLDY    67  59  75 NW8       29.84R
CRYSTAL        CLEAR     63  56  78 NW5       29.83S
BLAINE         CLEAR     64  61  88 W6        29.84R
LAKEVILLE      CLEAR     63  63 100 CALM      29.85S
EDEN PRAIRIE   CLEAR     65  60  84 NW3       29.84S
SOUTH ST PAUL  CLEAR     67  58  71 NW7       29.83S
LAKE ELMO      CLOUDY    68  61  77 NW6       29.84S
$$
MNZ001>005-007-008-013>017-022>024-027-028-180500-
   Northwest Minnesota

CITY           SKY/WX    TMP DP  RH WIND       PRES   REMARKS
BEMIDJI        CLEAR     56  55  95 W3        29.85S
HALLOCK        CLEAR     63  55  77 CALM      29.83S
ROSEAU         CLEAR     63  55  77 CALM      29.83F
WARROAD        CLEAR     61  57  88 NW3       29.83F
CROOKSTON      CLEAR     64  57  77 CALM      29.85S
FOSSTON        CLEAR     55  52  88 CALM      29.86F
DETROIT LAKES  CLEAR     63  61  94 CALM      29.89R
MOORHEAD       CLEAR     63  59  88 CALM      29.87S
PARK RAPIDS    CLEAR     60  57  89 CALM      29.85S
MAHNOMEN       FAIR      60  57  91 CALM      29.86S
$$
MNZ006-009>011-018-025>026-180500-
   North Central Minnesota

CITY           SKY/WX    TMP DP  RH WIND       PRES   REMARKS
BAUDETTE       CLEAR     57  57 100 W3        29.82S
FLAG ISLAND    CLEAR     68  57  68 CALM      29.81S
INTL FALLS     CLEAR     52  52 100 CALM      29.82S FOG
WASKISH        CLEAR     54  54 100 CALM      29.83S FOG
BIG FORK       CLEAR     54  52  94 CALM      29.83S FOG
LONGVILLE      CLEAR     55  55 100 CALM      29.84S FOG
GRAND RAPIDS   FOG       55  54  96 CALM      29.85S VSB 1
CRANE LAKE     CLEAR     55  55 100 CALM      29.83S
ORR            CLEAR     57  55  94 CALM      29.79F
COOK           PTCLDY    57  57 100 CALM      29.82S
WALKER         FAIR      56  56  99 CALM      29.85S
$$
MNZ012-019>021-037-180500-
   Northeast Minnesota

CITY           SKY/WX    TMP DP  RH WIND       PRES   REMARKS
DULUTH         PTCLDY    59  59 100 NW12      29.78F
ELY            CLOUDY    61  57  88 NW6       29.79S
HIBBING        CLEAR     55  54  96 N6        29.81S
EVELETH        CLEAR     60  55  84 CALM      29.82S
DULUTH HARBOR  CLEAR     64  61  88 NW10      29.78R
TWO HARBORS    MOCLDY    64  61  88 N5        29.75S
SILVER BAY     CLOUDY    64  61  88 NW3       29.73R
GRAND MARAIS     N/A     64  60  87 VRB3      29.69S
$$
MNZ029>031-032-039>041-046>048-054>057-064-180500-
   West Central Minnesota

CITY           SKY/WX    TMP DP  RH WIND       PRES   REMARKS
FERGUS FALLS   CLEAR     63  63 100 CALM      29.87S
WHEATON        PTCLDY    61  57  88 CALM      29.89F
MORRIS         CLEAR     63  61  94 W5        29.87S
ALEXANDRIA     CLEAR     62  59  90 W5        29.89S
ELBOW LAKE     FAIR      62  60  94 SW3       29.89R
WADENA         CLEAR     57  57 100 W5        29.87R
GLENWOOD       CLEAR     63  61  94 W5        29.88F
APPLETON       CLEAR     63  59  88 W3        29.87F
BENSON         CLEAR     63  59  88 CALM      29.89F
ORTONVILLE     CLEAR     63  59  88 MISG      29.88S
MADISON        CLEAR     64  64 100 CALM      29.88F
WILLMAR        FAIR      63  63 100 CALM      29.88F
$$
MNZ033>034-036-042>043-049>051-058-059-180500-
   Central Minnesota

CITY           SKY/WX    TMP DP  RH WIND       PRES   REMARKS
ST CLOUD       CLEAR     59  59 100 CALM      29.85S
SAUK CENTRE    FAIR      60  58  96 CALM      29.88S
PAYNESVILLE    CLEAR     58  57  98 W5        29.88S
AITKIN         FOG       52  48  87 CALM      29.83S VSB 1/2
PINE RIVER     CLEAR     54  52  94 CALM      29.88F
BRAINERD       CLEAR     56  55  97 CALM      29.85R
STAPLES        CLEAR     57  57 100 CALM      29.86S
LONG PRAIRIE   FAIR      55  55 100 CALM      29.88S
LITTLE FALLS   FOG       55  54  94 CALM      29.86S VSB 1/4
LITCHFIELD     CLEAR     63  63 100 CALM      29.88S
BUFFALO        CLEAR     61  58  89 CALM      29.87S
MAPLE LAKE     CLEAR     59  58  97 CALM      29.87S FOG
HUTCHINSON     CLEAR     60  60  99 CALM      29.88S
$$
MNZ037-044-045-052-053-180500-
   East Central Minnesota

CITY           SKY/WX    TMP DP  RH WIND       PRES   REMARKS
PRINCETON      CLEAR     57  55  94 CALM      29.85S
MORA           CLEAR     57  54  88 CALM      29.85S
RUSH CITY      HVY RAIN  60  58  91 CALM      29.83S
MOOSE LAKE     CLEAR     59  55  88 CALM      29.80S
HINCKLEY       FAIR      61  61 100 CALM      29.82S
CLOQUET        MOCLDY    61  57  88 NW9       29.80F
MCGREGOR       CLEAR     57  55  94 CALM      29.84R
$$
MNZ071>073-080-081-089-090-097-098-180500-
   Southwest Minnesota

CITY           SKY/WX    TMP DP  RH WIND       PRES   REMARKS
MONTEVIDEO     CLEAR     63  61  94 NW5       29.88F
GRANITE FALLS  CLEAR     62  61  96 W5        29.89F
CANBY          CLEAR     61  58  92 CALM      29.91R
MARSHALL       CLEAR     61  58  90 SW6       29.90S
REDWOOD FALLS  CLEAR     63  60  90 W6        29.88R
OLIVIA         CLEAR     63  59  88 CALM      29.87F
PIPESTONE      CLEAR     64  61  88 E3        29.91F
WINDOM         CLEAR     61  57  88 CALM      29.91S
WORTHINGTON    CLEAR     61  58  90 CALM      29.92S
JACKSON        CLEAR     57  57 100 CALM      29.92R FOG
TRACY          CLEAR     64  60  88 W3        29.91S
SLAYTON        CLEAR     60  53  76 CALM      29.93S
$$
MNZ065>067-074>077-082>085-091>093-180500-
   South Central Minnesota

CITY           SKY/WX    TMP DP  RH WIND       PRES   REMARKS
MANKATO        CLEAR     64  60  87 NW5       29.87S
NEW ULM        CLEAR     59  57  94 CALM      29.88S
ST JAMES       CLEAR     63  61  94 CALM      29.90R
FAIRMONT       CLEAR     63  60  90 NW3       29.89S
GLENCOE        CLEAR     61  62 100 CALM      29.86S
FARIBAULT      CLEAR     63  61  94 W3        29.86S
OWATONNA       CLEAR     61  61 100 W5        29.87R
WASECA         CLEAR     59  57  94 W3        29.88S
ALBERT LEA     CLEAR     66  64  94 W5        29.87S
$$
MNZ078>079-086>088-094>096-180500-
   Southeast Minnesota

CITY           SKY/WX    TMP DP  RH WIND       PRES   REMARKS
ROCHESTER      CLOUDY    66  61  84 NW9       29.86R
RED WING       CLOUDY    70  61  73 NW5       29.81S
STANTON        PTCLDY    65  60  86 W6        29.83S
DODGE CENTER   CLOUDY    64  59  82 NW10      29.86S
WINONA         CLOUDY    70  63  78 NW8       29.80S
AUSTIN         CLEAR     64  61  88 CALM      29.86S
PRESTON        CLOUDY    65  60  86 NW8       29.86R
$$
ABBREVIATIONS USED IN REMARKS
   TC - TEMPERATURES IN CELSIUS
  WCI - WIND CHILL INDEX
   HX - HEAT INDEX
  VSB - VISIBILITY
$$



USA.gov is the U.S. government's official web portal to all federal, state and local government web resources and services.